Location: Ballingbuur
(53.0000°N, 5.7667°E)
Time: 06:48:34
(UTC+00:00)

OPS 8737 - Pass Details

Date: 29 November 2020
Orbit: 354 x 1720 km, 63.3° (Epoch: 16 January)

Event Time Altitude Azimuth Distance (km) Brightness Sun altitude
Exits shadow 06:10:46 16° 306° (NW) 1,150 5.8 -10.6°
Maximum altitude 06:13:07 66° 226° (SW) 491 4.5 -10.2°
Drops below altitude 10° 06:16:58 10° 144° (SE) 1,809 8.5 -9.7°
Sets 06:19:33 0° 142° (SE) 2,904 9.7 -9.3°
